Weather History for KDFI - October, 2011

Change the Weather History Date:

Sunday, October 2, 2011

  Actual Average Record
Temperature  
Mean Temperature 50 °F -  
Max Temperature 63 °F 70 °F 88 °F (1971)
Min Temperature 37 °F 44 °F 27 °F (1974)
Degree Days  
Heating Degree Days 15    
Moisture  
Dew Point 35 °F    
Average Humidity 64    
Maximum Humidity 89    
Minimum Humidity 28    
Precipitation  
Precipitation 0.00 in - - ()
Sea Level Pressure  
Sea Level Pressure 30.16 in    
Wind  
Wind Speed 8 mph (NNW)    
Max Wind Speed 17 mph    
Max Gust Speed 25 mph    
Visibility 10 miles    
Events      
Averages and records for this station are not official NWS values.
T = Trace of Precipitation, MM = Missing Value Source: NWS Daily Summary

Daily Weather History Graph

Daily Weather History Graph

Search for Another Location

Airport or City:

Trip Planner

Search our weather history database for the weather conditions in past years. The results will help you decide how hot, cold, wet, or windy it might be!

Date:

Astronomy

Oct. 02, 2011 Rise Set
Actual Time 7:35 AM EDT 7:18 PM EDT
Civil Twilight 7:07 AM EDT 7:45 PM EDT
Nautical Twilight 6:35 AM EDT 8:17 PM EDT
Astronomical Twilight 6:03 AM EDT 8:50 PM EDT
Moon 1:44 PM EDT (10/2) 11:12 PM EDT (10/2)
Length of Visible Light 12h 38m
Length of Day
11h 43m
Waxing Crescent, 34% of the Moon is Illuminated
Oct 2
Waxing Crescent
Oct 3
First Quarter
Oct 11
Full
Oct 19
Last Quarter
Oct 26
New

Hourly Weather History & Observations

Time (EDT) Temp. Windchill Dew Point Humidity Pressure Visibility Wind Dir Wind Speed Gust Speed Precip Events Conditions
12:53 AM 37.9 °F 35.5 °F 35.1 °F 89% 30.22 in 10.0 mi Variable 3.5 mph - N/A   Clear
1:53 AM 39.0 °F 36.8 °F 35.1 °F 86% 30.21 in 10.0 mi Variable 3.5 mph - N/A   Clear
2:53 AM 39.0 °F 35.7 °F 35.1 °F 86% 30.20 in 10.0 mi Variable 4.6 mph - N/A   Clear
3:53 AM 39.0 °F 33.4 °F 34.0 °F 82% 30.19 in 10.0 mi NW 8.1 mph - N/A   Clear
4:53 AM 39.0 °F 33.4 °F 35.1 °F 86% 30.19 in 10.0 mi NW 8.1 mph - N/A   Clear
6:53 AM 39.9 °F 33.9 °F 35.1 °F 83% 30.20 in 10.0 mi NNW 9.2 mph - N/A   Clear
7:53 AM 39.0 °F 32.8 °F 34.0 °F 82% 30.21 in 10.0 mi NNW 9.2 mph - N/A   Clear
8:53 AM 42.1 °F 35.7 °F 35.1 °F 76% 30.21 in 10.0 mi NNW 11.5 mph - N/A   Clear
9:53 AM 46.0 °F 42.5 °F 37.0 °F 71% 30.22 in 10.0 mi NNW 6.9 mph - N/A   Clear
10:53 AM 51.1 °F - 37.9 °F 61% 30.21 in 10.0 mi North 11.5 mph - N/A   Clear
12:53 PM 57.9 °F - 32.0 °F 37% 30.17 in 10.0 mi North 11.5 mph - N/A   Clear
1:53 PM 57.9 °F - 33.1 °F 39% 30.14 in 10.0 mi NNW 16.1 mph - N/A   Clear
2:53 PM 61.0 °F - 30.0 °F 31% 30.11 in 10.0 mi NW 15.0 mph 21.9 mph N/A   Clear
3:53 PM 63.0 °F - 30.9 °F 30% 30.08 in 10.0 mi NW 17.3 mph 25.3 mph N/A   Clear
5:53 PM 62.1 °F - 28.0 °F 28% 30.08 in 10.0 mi NNW 13.8 mph 21.9 mph N/A   Clear
6:53 PM 57.0 °F - 34.0 °F 42% 30.08 in 10.0 mi NW 9.2 mph - N/A   Clear
7:53 PM 53.1 °F - 36.0 °F 52% 30.09 in 10.0 mi NW 8.1 mph - N/A   Partly Cloudy
9:53 PM 52.0 °F - 41.0 °F 66% 30.12 in 10.0 mi NW 8.1 mph - N/A   Scattered Clouds
10:53 PM 50.0 °F - 41.0 °F 71% 30.11 in 10.0 mi NW 8.1 mph - N/A   Mostly Cloudy
11:53 PM 48.0 °F - 39.9 °F 74% 30.13 in 10.0 mi North 6.9 mph - N/A   Partly Cloudy